Theta_e
349 349 348 347 347 346 346 346 346 347 347 347 348 347 347 347 347 346 346 345 345 345 345 345 344 342 339 338 339 340 341 339 336 334 334 335 334 335 337 340 342 342 341 339 338 338 338 337 338 340 341 340 340 341 341 343 345 345 345 345 345 344 343
350 349 349 348 347 347 347 346 346 346 346 347 347 347 347 347 347 346 346 345 345 345 345 345 345 344 341 338 337 339 340 341 338 335 333 333 334 334 335 337 339 340 340 340 340 340 340 339 338 339 340 341 340 340 340 341 343 345 345 346 346 345 344
350 350 350 349 349 348 347 347 346 346 346 346 346 347 347 347 346 346 346 346 345 345 345 345 345 345 343 340 337 337 339 340 340 338 334 332 332 332 333 335 336 337 338 339 340 342 342 342 340 340 340 340 340 340 340 341 342 344 345 346 347 346 345
346 349 350 350 349 349 348 347 347 347 346 346 346 346 346 347 346 346 346 346 345 345 345 346 345 345 345 342 339 337 337 337 338 338 336 333 331 330 331 333 333 334 334 336 338 341 342 343 343 342 341 341 341 341 341 341 342 343 344 345 346 347 346
342 345 349 351 349 349 349 348 348 347 347 346 346 346 346 346 346 346 346 346 346 345 345 346 346 345 345 344 342 340 338 337 336 336 337 336 333 330 329 330 331 331 331 332 335 338 341 342 342 343 343 341 341 342 342 342 341 341 342 343 344 345 346
338 343 347 349 350 350 349 349 349 348 348 347 346 346 346 346 346 346 346 346 345 345 345 346 346 345 346 345 344 342 340 339 338 336 337 336 335 332 328 327 329 330 330 330 331 334 338 340 341 342 342 341 340 340 341 343 343 342 341 342 342 342 343
335 339 344 347 349 351 350 349 349 348 348 348 347 347 346 346 346 346 346 345 345 345 345 346 346 346 346 345 345 344 342 342 340 339 338 337 336 334 331 328 328 328 329 329 329 331 334 338 340 341 340 340 339 337 337 339 341 342 342 342 341 341 340
334 336 341 345 347 349 350 350 349 348 349 348 347 347 346 346 346 345 346 346 345 346 345 346 346 346 346 346 345 344 344 344 343 341 340 338 336 335 333 331 328 327 328 329 329 329 330 332 335 336 336 336 335 334 333 332 334 337 338 340 341 340 339
335 335 338 343 346 348 349 350 350 349 349 348 347 347 346 346 347 346 346 346 346 346 346 346 346 346 346 346 345 345 344 345 345 343 342 341 339 336 334 332 330 329 328 328 328 328 328 328 328 330 330 330 330 330 330 329 330 331 332 334 337 340 340
335 336 337 340 343 347 348 349 350 349 349 348 347 347 347 346 346 346 347 346 346 347 346 346 346 346 346 346 346 345 345 345 345 345 344 343 342 340 337 334 331 329 329 328 328 328 327 327 326 327 327 327 327 327 327 327 328 329 330 330 332 337 340
332 335 337 338 340 343 346 348 349 348 348 348 348 348 347 346 346 346 346 346 346 346 347 347 346 346 346 346 346 345 345 345 346 346 345 345 345 344 342 340 335 331 329 328 328 327 327 327 327 327 326 326 326 326 325 326 326 327 329 329 330 332 335
329 331 334 336 337 339 342 344 346 348 348 347 347 348 347 347 347 347 346 346 347 347 346 347 346 346 346 346 346 345 345 346 346 346 346 345 346 345 345 344 342 337 332 329 328 328 327 327 326 326 326 326 326 325 325 325 325 326 326 327 328 330 331
326 328 330 333 336 338 339 341 343 345 347 347 348 347 347 348 347 347 347 346 346 346 346 346 346 346 346 346 346 346 346 347 347 347 347 346 346 346 346 346 346 343 339 334 330 328 327 327 327 326 326 326 325 325 325 325 325 325 325 325 326 327 329
325 326 327 328 332 334 336 339 341 343 345 346 348 347 347 347 347 347 348 347 347 347 346 347 346 346 347 346 346 347 347 347 347 347 347 347 347 347 347 347 347 347 346 342 336 330 328 328 328 327 326 326 326 325 325 326 325 325 326 325 325 325 326
324 325 325 325 327 329 331 334 337 341 343 344 347 348 348 347 347 347 348 347 347 347 347 347 347 346 347 347 347 347 347 347 347 347 347 347 347 347 348 348 348 348 348 347 344 337 332 329 328 328 327 327 327 326 326 326 325 325 325 325 325 325 325
322 323 324 325 325 326 327 330 332 336 340 343 345 347 348 349 348 348 348 348 348 348 348 348 347 347 347 347 348 348 347 347 347 347 347 347 348 348 348 348 349 350 349 349 349 346 342 336 331 328 327 326 326 326 326 326 325 325 325 325 325 325 325
321 321 322 324 324 324 325 326 328 331 334 339 342 345 347 349 349 349 349 349 348 348 348 348 348 348 348 347 348 348 348 348 348 347 348 348 348 348 348 349 349 350 351 351 351 350 349 346 341 335 331 327 326 325 325 324 324 324 325 325 325 325 325
321 321 322 323 323 324 323 324 326 329 330 332 336 341 344 346 349 351 350 350 349 349 349 349 348 349 348 348 349 348 348 348 348 348 348 348 349 348 349 350 350 350 351 352 352 352 351 351 349 345 340 335 331 328 326 325 324 324 324 324 324 324 324
320 320 321 322 322 323 324 323 323 327 330 329 330 335 338 341 346 349 351 351 351 350 350 350 349 349 349 349 349 349 349 349 349 349 349 349 349 349 349 350 351 351 352 352 353 353 353 353 352 351 349 345 341 335 331 328 326 325 324 324 324 324 324
321 320 320 321 322 322 324 324 323 324 329 330 328 329 333 337 341 346 349 351 352 352 351 351 351 350 350 350 350 349 350 350 349 350 350 350 350 350 351 351 351 352 353 353 354 354 354 354 354 353 353 351 349 344 338 333 329 328 328 327 326 326 327
321 321 320 320 321 321 323 325 324 323 326 330 330 327 329 333 336 342 347 350 353 353 352 352 352 352 351 351 351 351 351 351 351 351 351 352 352 352 352 353 353 354 354 354 355 355 355 355 355 355 355 354 354 352 347 339 333 332 332 331 331 331 332
320 321 320 319 319 320 321 324 325 324 324 329 331 329 327 328 331 336 342 346 350 353 354 354 354 354 353 353 352 353 352 352 353 353 353 353 353 354 354 354 355 355 356 356 356 356 356 357 357 356 356 356 356 355 352 345 338 336 335 334 335 335 335
320 320 320 320 319 319 319 321 324 324 324 327 330 331 330 329 329 332 336 341 345 349 352 355 356 355 355 355 355 354 354 354 353 354 354 355 355 355 355 356 356 357 357 357 357 357 358 358 358 358 358 358 357 357 353 347 341 340 337 336 337 338 337
320 319 319 320 319 319 319 319 321 322 323 325 327 329 331 332 332 331 332 335 340 342 345 350 355 357 356 356 357 356 356 356 356 356 356 356 356 356 356 357 357 357 358 358 358 358 359 360 360 360 360 359 359 358 355 349 343 341 340 338 339 339 339
320 319 319 319 319 319 319 319 319 321 323 325 325 326 329 331 333 333 332 332 334 336 339 343 348 354 357 357 358 358 358 358 358 358 358 357 357 357 358 358 358 359 359 359 359 360 360 360 360 361 361 361 360 360 358 354 347 342 341 341 340 340 340
320 319 319 319 319 319 319 319 319 320 322 324 324 326 328 329 331 333 334 333 332 331 334 338 341 347 353 358 358 358 359 359 359 360 360 360 360 359 359 359 360 360 360 360 360 361 361 361 361 361 362 362 361 361 361 358 353 347 342 342 342 342 342
319 319 319 319 319 319 319 319 318 319 321 323 324 325 328 329 330 331 333 335 333 331 333 337 339 342 348 355 357 358 359 359 359 360 360 361 361 360 359 359 359 360 361 361 361 361 361 362 362 362 362 363 362 362 362 361 359 355 350 346 344 344 344
319 319 319 318 319 319 319 319 319 318 320 322 324 325 326 328 330 331 332 334 334 333 334 337 339 340 342 346 351 356 359 358 358 359 359 359 359 358 358 358 357 358 360 360 361 361 361 361 362 362 362 362 363 363 363 362 362 360 358 354 350 347 345
318 319 318 318 318 318 319 319 319 318 319 321 323 324 325 326 328 330 332 333 334 335 335 337 338 339 339 340 344 349 355 356 357 358 358 359 359 358 358 358 357 358 359 360 360 360 360 361 361 361 362 362 362 363 363 363 363 361 361 359 356 353 349
316 318 318 318 318 318 318 319 319 318 318 319 321 323 324 326 327 329 331 332 333 334 336 337 338 337 337 338 339 342 346 350 353 355 356 358 359 359 360 360 359 359 359 359 360 360 360 361 361 362 362 361 362 363 363 363 363 362 362 361 360 358 354
313 316 318 318 318 318 318 318 318 318 318 318 319 321 323 325 325 327 329 331 332 333 335 336 336 335 335 334 335 338 340 341 345 349 352 355 357 359 359 359 360 360 360 359 360 360 360 361 361 362 362 361 362 362 363 363 363 362 362 362 361 361 359
311 313 316 318 318 318 318 318 318 318 318 318 318 320 321 323 324 325 327 329 330 331 333 334 334 334 334 332 331 334 337 338 339 343 347 351 354 357 358 357 358 359 360 360 360 360 360 361 361 362 362 361 362 361 362 363 363 363 363 362 362 361 361
311 312 315 317 318 318 318 319 318 318 318 318 318 319 320 321 322 324 325 325 326 327 330 333 334 334 334 332 329 331 335 338 339 340 345 350 353 354 356 357 357 358 359 359 359 359 360 361 361 362 361 361 361 361 360 361 361 362 363 362 362 362 361
312 311 313 317 318 318 319 319 318 318 317 317 318 318 319 319 320 322 323 324 323 324 326 330 332 334 334 333 329 328 331 336 341 343 348 353 355 354 354 356 357 357 357 357 357 358 358 359 360 360 359 358 357 358 359 359 359 360 361 362 361 361 360
313 311 313 316 318 318 318 319 319 318 317 317 317 318 318 318 319 320 322 323 323 323 324 327 330 332 333 333 332 329 329 333 339 343 347 353 356 356 356 355 356 357 357 356 356 357 357 358 358 356 355 355 355 355 356 356 357 358 359 359 360 360 359
314 312 312 315 318 318 318 318 319 318 317 317 317 318 318 318 318 319 321 322 323 323 323 325 328 331 332 333 334 333 331 332 337 340 344 349 354 358 359 358 357 356 356 355 356 357 358 359 358 357 356 356 356 355 355 355 355 357 359 359 360 360 360
315 313 312 315 317 318 318 318 318 318 317 317 318 318 318 318 317 318 320 321 322 323 323 324 327 331 333 334 334 334 333 334 336 338 341 345 350 355 359 360 359 359 359 358 357 358 359 359 359 359 359 358 358 358 357 358 358 359 360 360 360 361 360
315 314 313 315 317 318 318 318 318 318 317 317 317 318 318 318 317 317 319 321 322 322 323 323 326 330 334 334 334 334 335 335 336 337 340 342 345 350 356 360 360 360 360 360 360 359 359 359 358 359 359 359 360 360 359 359 360 361 361 361 361 361 361
Wind_Speed
28 32 35 36 37 40 42 42 43 45 45 46 46 46 47 46 46 45 43 42 41 39 37 35 33 32 31 31 29 28 27 28 29 29 29 27 26 25 25 23 22 23 22 20 18 17 15 14 15 15 13 13 13 12 12 11 10 11 11 10 9 9 9
28 32 35 37 38 41 42 42 42 44 45 46 46 46 47 47 47 46 45 43 42 40 38 36 35 33 32 31 30 29 28 27 27 29 29 28 27 26 26 25 24 23 23 22 19 17 15 15 15 15 15 14 13 12 12 11 11 11 12 11 10 10 10
27 34 35 37 41 42 43 42 42 43 44 45 46 47 48 48 48 47 46 44 43 42 40 38 36 34 32 31 31 30 29 28 27 27 28 28 28 27 26 26 25 24 23 22 21 19 16 14 15 15 15 15 14 13 12 12 12 12 12 13 12 11 10
15 29 36 38 41 42 42 43 44 44 45 46 46 47 48 48 48 47 46 45 43 43 42 40 38 36 34 33 32 31 30 29 28 27 27 27 27 27 27 27 27 25 24 22 21 20 17 16 15 14 14 14 14 14 13 12 12 12 13 14 14 13 11
25 17 31 37 37 38 40 43 45 46 46 46 46 47 47 47 47 47 47 46 44 43 42 40 39 38 36 35 33 32 31 30 29 28 27 27 27 28 28 27 27 26 25 22 22 21 19 18 17 16 15 14 14 14 14 13 13 13 13 14 14 14 13
33 21 18 32 36 37 41 43 45 46 47 46 46 46 46 46 47 47 47 47 46 45 43 42 40 39 38 37 35 34 32 31 30 29 28 27 28 29 29 29 28 27 25 23 22 22 21 20 20 18 17 16 14 13 13 13 13 13 13 14 14 14 14
35 32 17 18 32 37 39 40 42 44 45 45 45 44 45 46 47 47 47 47 47 46 45 45 43 41 40 38 37 35 34 33 32 30 29 28 28 29 30 30 30 29 27 25 24 22 21 21 21 20 18 18 16 15 14 13 13 13 13 14 14 14 14
37 36 30 14 18 31 35 35 37 39 40 41 43 44 44 46 47 47 48 47 47 47 46 46 44 43 42 40 39 37 35 33 32 31 30 29 29 30 30 31 31 30 29 28 26 24 23 22 21 20 19 18 18 16 15 14 14 14 15 15 15 14 14
41 40 36 27 9 13 24 29 31 34 36 38 41 43 43 45 46 47 48 47 47 47 47 46 44 43 43 42 41 39 37 35 34 33 32 31 30 30 30 31 32 32 31 30 28 26 25 23 22 21 21 19 18 17 16 16 15 15 16 16 16 15 15
43 43 41 35 24 10 4 14 21 27 33 37 39 41 42 43 45 47 47 47 47 47 46 45 45 44 44 43 42 41 39 38 36 35 34 33 32 31 30 30 31 33 33 32 30 28 27 25 24 23 22 21 20 19 18 17 17 17 17 17 17 17 16
43 45 45 41 35 26 16 7 6 15 25 31 36 38 39 40 42 45 46 47 47 47 46 45 44 44 45 44 43 43 42 40 38 37 36 35 33 32 30 30 31 32 34 34 33 31 29 28 27 26 25 24 22 21 20 19 19 18 18 18 18 18 18
43 45 46 45 42 36 28 22 14 6 11 20 27 32 35 38 40 42 44 45 46 46 46 45 45 45 45 45 44 44 43 42 40 39 37 36 34 33 31 31 31 32 33 35 35 34 32 31 30 29 28 26 25 24 23 22 21 20 19 19 19 19 20
43 43 45 45 44 42 36 30 24 16 8 7 17 24 28 33 37 40 42 43 44 45 45 45 45 45 45 45 45 44 44 43 42 40 38 36 34 33 32 31 31 31 33 34 35 36 35 34 33 32 30 29 28 27 25 25 24 23 22 21 21 20 21
42 42 44 45 44 43 41 37 31 25 18 9 6 16 21 25 29 35 39 42 42 43 44 45 45 45 45 45 45 45 44 43 42 40 38 36 35 33 32 32 31 31 31 33 35 36 37 36 35 34 33 32 31 30 29 28 27 26 25 24 23 22 22
41 41 42 44 43 42 41 40 37 31 24 18 9 6 13 18 22 26 32 37 40 42 43 44 45 45 45 46 46 45 43 43 42 41 40 38 37 35 34 32 31 31 30 31 33 35 37 37 37 36 35 34 33 32 31 31 30 28 27 26 25 24 24
38 39 39 39 41 40 39 39 38 35 29 23 17 9 3 9 16 20 25 31 36 40 42 42 44 45 45 46 45 44 43 43 43 42 41 40 38 37 35 34 32 31 31 31 32 33 35 36 38 38 38 37 36 35 35 34 33 31 29 28 27 26 26
34 35 36 36 37 37 38 38 38 36 32 28 24 17 10 2 6 13 20 25 30 36 40 42 43 44 45 45 44 43 43 43 42 42 41 40 39 38 36 35 34 33 32 32 32 32 32 34 36 38 38 38 37 37 37 36 35 33 31 30 28 28 27
29 31 32 33 34 35 36 36 37 36 34 31 27 23 17 11 3 5 13 21 26 31 36 40 42 43 43 44 43 42 42 42 42 42 41 40 39 38 36 35 35 35 34 34 33 32 32 32 34 35 37 37 38 38 37 37 35 34 32 31 30 29 28
26 27 29 29 30 32 33 33 34 34 33 31 28 25 22 18 12 5 6 14 22 28 33 37 40 41 42 41 41 41 41 41 41 41 41 40 39 37 37 36 36 36 35 35 34 33 33 33 32 33 34 36 37 38 38 37 36 34 33 32 31 30 30
24 26 27 27 27 28 29 30 31 31 31 30 28 25 21 20 17 11 5 8 15 22 30 35 37 39 40 39 39 39 39 39 40 39 38 38 37 37 37 37 37 36 35 34 34 35 35 34 34 33 33 34 35 37 38 38 37 36 35 34 32 31 31
24 26 27 27 26 26 27 28 28 30 30 28 27 25 22 20 18 14 9 5 9 15 23 31 35 37 38 37 36 37 37 38 38 37 36 35 35 36 36 36 36 35 34 34 34 34 34 34 34 34 33 33 33 35 37 38 38 37 36 35 33 32 31
23 25 26 26 25 25 25 25 25 27 28 27 26 25 23 22 21 16 12 8 4 7 14 24 30 33 35 36 36 36 37 37 36 36 35 35 35 36 35 35 34 32 32 32 33 33 33 33 33 33 33 33 33 34 36 38 38 38 37 36 34 32 31
22 23 23 24 24 24 23 22 22 23 25 25 25 24 23 23 21 17 13 10 8 5 6 14 24 29 32 34 36 37 37 38 38 37 35 35 37 37 35 34 33 31 31 32 32 32 32 32 31 31 32 32 33 34 35 37 38 37 36 35 34 32 32
21 22 23 23 25 25 24 23 22 22 23 24 25 24 23 21 20 18 16 13 9 8 7 4 14 24 29 31 32 34 35 37 38 38 37 37 37 37 36 35 34 33 32 32 32 32 31 31 31 31 31 32 32 33 33 34 35 36 36 35 33 33 32
22 23 23 23 25 26 25 24 22 21 21 22 24 25 24 22 20 18 16 14 13 10 9 7 3 13 22 27 29 31 32 33 33 34 36 37 37 36 36 35 34 33 33 34 34 33 32 32 33 33 32 31 31 31 31 31 32 34 35 35 34 33 33
22 23 24 25 25 25 25 24 21 20 20 21 22 24 24 22 21 20 17 14 13 14 14 11 5 3 13 22 26 29 30 30 30 30 31 33 34 33 32 31 32 32 34 35 35 34 34 34 35 34 33 32 32 31 30 30 30 31 33 34 34 34 34
20 21 24 26 25 25 25 24 22 19 19 20 20 22 23 23 22 22 19 15 12 12 14 15 8 1 9 16 22 27 29 29 29 29 29 30 31 30 29 29 30 32 34 35 35 35 35 35 35 35 35 34 33 33 31 30 29 29 30 32 33 34 34
19 18 21 24 25 24 24 24 22 19 17 18 18 19 20 22 22 21 20 18 15 11 11 14 11 4 4 9 16 22 25 26 26 27 28 29 30 31 31 31 31 33 34 35 35 36 36 35 35 36 36 35 35 35 34 31 30 29 29 29 31 33 34
20 20 20 21 23 24 24 24 24 21 17 16 17 18 19 21 22 21 20 20 19 16 13 13 12 9 6 5 10 17 21 22 23 24 24 25 27 29 31 31 32 32 33 34 35 36 37 36 35 35 35 35 36 37 36 34 32 30 29 28 28 30 32
22 21 21 20 20 22 24 25 25 23 18 15 15 17 19 21 23 22 21 21 22 21 18 14 13 11 8 5 5 10 16 20 22 23 23 23 24 26 27 28 29 31 31 33 34 35 37 38 38 37 36 34 35 36 37 36 34 32 30 29 28 28 29
25 23 22 21 20 20 23 25 25 24 21 16 14 15 16 19 22 23 22 21 21 22 20 16 15 15 11 8 7 6 10 16 21 24 26 25 25 26 26 25 27 28 30 31 33 35 37 38 39 40 38 35 33 33 34 35 35 34 32 31 29 28 28
27 23 22 22 20 19 21 24 25 25 23 18 16 15 14 16 19 21 22 21 19 19 19 16 14 15 14 10 9 10 10 11 16 20 24 26 27 28 28 28 28 28 29 31 33 35 36 38 39 39 40 38 36 33 32 33 34 35 34 33 32 31 30
28 25 22 21 20 19 20 22 24 25 25 22 19 17 15 15 16 18 20 21 20 19 18 16 13 14 15 12 10 12 15 12 11 15 19 23 26 28 30 31 31 31 31 32 34 35 36 38 39 39 39 38 37 35 33 32 32 34 36 36 35 33 31
28 26 23 20 19 18 20 21 23 25 26 25 23 20 18 16 16 17 19 22 22 20 19 18 16 14 15 14 11 12 16 16 12 13 17 20 22 26 28 31 33 34 34 35 36 36 36 37 38 38 37 35 35 35 34 34 33 33 34 34 34 32 31
27 26 24 21 18 18 20 21 22 24 26 26 25 23 21 18 17 18 19 21 24 22 20 19 18 16 16 15 12 12 16 19 15 13 17 19 21 23 26 29 31 34 36 37 37 36 36 36 36 35 34 33 34 34 35 35 34 31 29 28 28 29 29
26 26 25 23 19 18 20 22 23 24 26 26 26 25 23 20 18 19 20 21 23 23 22 20 19 18 17 16 13 12 16 20 18 14 14 17 21 23 24 26 28 31 34 36 36 35 35 35 35 34 33 34 35 35 35 35 32 29 28 29 29 30 30
27 26 26 23 21 20 21 23 24 24 25 26 26 25 24 22 21 20 20 21 21 22 22 20 19 18 17 16 14 13 15 18 19 17 15 15 18 21 22 23 25 27 29 31 31 31 31 32 32 32 32 34 35 36 36 36 34 33 32 32 32 32 31
27 26 26 24 21 20 22 23 24 24 25 25 26 26 25 24 23 22 21 21 21 21 21 20 19 18 17 16 15 14 14 17 18 18 17 15 15 17 20 21 22 24 25 26 26 26 27 28 29 29 30 31 33 34 35 35 35 35 34 34 34 34 33
Wind_Direction
209 209 210 212 213 215 217 218 218 218 218 219 220 221 222 224 225 226 227 227 227 225 224 223 222 221 220 219 220 222 224 227 228 228 228 229 230 229 227 222 219 218 219 220 221 220 220 224 228 229 227 225 223 221 222 222 222 220 215 214 214 216 222
210 212 213 213 213 215 218 218 218 218 218 218 220 221 222 223 224 225 226 227 228 228 227 226 225 224 224 222 221 222 224 227 228 229 230 230 230 231 229 227 224 221 222 224 223 220 219 222 226 229 229 228 226 224 223 223 224 225 223 222 223 224 226
218 214 215 216 216 217 217 217 218 219 219 219 219 220 221 223 225 226 227 228 229 229 228 228 227 227 226 225 224 224 225 226 228 229 230 230 230 231 231 231 229 226 225 225 225 222 220 221 224 228 231 232 231 229 227 227 227 227 226 226 229 231 231
273 227 219 219 220 219 217 217 217 219 220 220 220 221 223 224 226 227 228 229 230 230 230 229 229 228 228 227 227 226 226 226 228 229 231 231 231 232 233 233 232 231 228 226 225 225 223 223 223 226 231 233 234 235 234 233 232 232 230 230 234 237 236
342 273 232 224 222 221 220 218 218 219 220 221 221 222 223 225 226 227 228 230 231 232 233 232 231 231 230 230 229 229 229 228 229 230 231 232 233 233 233 233 233 233 232 229 227 226 225 224 224 226 230 231 233 235 238 238 237 237 236 235 236 239 238
357 344 264 233 226 223 223 222 219 219 220 221 221 221 222 223 225 227 228 229 231 232 232 232 233 232 232 232 232 232 232 231 230 230 232 233 234 234 233 233 233 234 235 233 230 228 227 225 224 226 228 230 232 234 237 241 242 243 244 242 240 240 240
3 5 346 257 234 228 227 225 223 221 221 221 221 221 221 222 224 226 228 229 231 232 231 231 232 233 233 234 234 234 233 233 233 232 232 233 234 235 235 235 234 234 236 236 234 230 228 226 225 226 229 232 235 236 238 242 245 248 251 251 248 245 242
11 12 14 348 253 234 230 228 226 224 221 220 220 220 220 221 223 225 227 229 231 231 232 232 233 234 234 235 235 235 235 235 235 234 233 233 234 236 236 236 236 236 236 236 235 232 229 228 228 230 233 236 238 241 243 246 248 251 254 256 256 252 247
21 19 21 24 7 241 234 231 229 226 222 220 221 221 220 220 222 224 226 229 230 230 232 234 235 235 236 236 237 237 237 237 236 235 235 234 235 236 237 238 237 236 236 236 235 234 231 230 232 235 237 240 244 248 250 252 253 253 254 255 256 255 253
26 24 24 29 38 52 204 222 224 225 224 223 222 222 222 221 222 223 225 227 229 231 233 234 235 236 236 236 237 238 238 238 238 237 236 236 235 236 238 239 240 239 238 237 236 235 234 233 234 236 239 242 246 250 254 256 256 256 256 256 255 255 255
29 29 28 29 33 43 57 82 177 208 218 222 223 224 224 222 222 223 224 226 228 230 233 234 235 236 236 237 237 238 239 239 239 239 239 238 238 237 237 239 241 241 240 239 238 236 235 235 236 237 239 241 244 249 253 256 259 260 261 262 260 258 255
30 30 30 30 30 33 39 46 58 115 193 212 218 223 226 225 224 224 225 226 227 229 231 233 234 235 236 237 238 239 240 240 240 241 241 242 241 240 239 239 240 242 241 241 240 239 237 236 237 239 240 242 244 248 251 255 258 261 264 267 268 266 262
33 30 30 31 31 30 31 35 40 49 75 175 204 214 222 227 227 226 226 226 227 228 229 231 233 235 236 238 238 240 241 241 242 242 243 244 244 243 243 242 242 242 242 242 242 242 241 238 238 239 242 244 246 247 250 253 256 258 261 265 267 269 268
34 31 30 30 30 29 28 29 30 34 42 60 161 199 212 221 225 227 228 228 227 227 229 230 232 234 236 237 239 240 241 242 243 244 244 245 246 246 245 244 244 244 244 244 243 243 243 242 241 241 243 245 247 249 250 252 254 255 257 260 263 266 268
31 30 28 27 26 25 26 26 26 28 31 37 60 157 197 209 215 221 226 229 229 229 230 231 232 233 235 237 238 241 243 243 244 244 245 245 246 246 246 246 246 246 246 245 244 244 244 244 244 244 244 246 247 249 250 251 252 252 253 256 260 263 265
27 28 27 25 23 22 22 22 23 24 26 29 36 51 125 197 206 210 216 225 230 231 231 231 232 233 234 235 238 241 243 244 244 244 245 245 246 247 248 248 249 249 248 247 246 246 245 245 245 246 246 247 247 249 250 251 251 251 252 255 257 260 262
23 25 25 24 23 20 19 19 19 19 21 23 25 28 32 54 207 208 208 214 224 231 233 232 232 233 234 235 238 241 242 243 244 244 245 246 247 248 249 250 251 251 252 251 250 249 247 246 246 246 246 247 247 248 249 250 250 250 251 253 255 257 259
21 22 23 23 21 19 17 17 16 15 14 14 18 21 21 17 354 225 211 208 214 223 229 233 233 232 234 236 238 240 241 242 243 244 246 247 247 248 250 251 252 252 253 253 253 252 251 249 248 247 247 247 247 248 248 249 250 250 251 251 253 255 257
19 17 18 19 18 17 16 14 14 13 10 8 8 12 14 13 8 344 240 217 214 216 221 229 233 234 234 236 238 240 241 242 243 244 246 247 248 249 250 250 251 252 253 254 254 254 254 253 252 251 249 248 248 247 247 248 249 249 250 251 251 253 255
16 15 16 16 16 17 16 13 11 11 10 7 3 2 3 5 8 6 326 245 226 219 218 222 230 234 236 237 239 241 242 242 243 245 246 248 249 249 250 251 251 252 253 254 255 255 255 254 254 253 252 251 251 249 248 247 248 249 250 251 251 253 255
12 13 14 13 13 14 15 13 10 8 8 7 2 359 357 354 357 3 359 306 246 232 222 219 223 231 236 239 240 241 241 241 242 244 246 247 248 248 250 251 252 252 253 254 254 254 255 255 255 255 254 254 253 253 250 247 246 247 249 250 251 252 253
6 7 10 11 9 9 10 10 9 6 5 6 3 0 359 354 347 348 1 8 326 260 237 222 219 223 229 235 239 240 240 241 241 243 245 245 246 247 248 249 250 251 252 253 254 254 255 255 255 255 254 254 254 253 251 248 245 246 247 248 249 250 252
360 359 2 6 5 5 5 4 4 3 1 4 6 2 358 356 348 339 343 2 22 6 276 232 220 218 221 226 231 235 237 239 240 241 243 244 245 246 247 248 249 250 251 251 252 253 254 254 255 255 254 253 253 252 251 248 245 244 244 245 246 248 249
352 353 356 359 360 1 2 357 357 359 357 358 3 2 357 354 350 344 337 337 354 17 6 277 222 216 217 219 223 228 232 236 238 240 242 244 245 247 248 249 251 251 252 252 253 253 254 255 255 256 255 255 254 253 253 251 247 244 243 242 243 245 247
343 346 350 354 354 355 357 355 353 354 354 354 355 356 356 353 350 349 346 334 323 328 344 347 249 216 215 216 219 223 226 230 235 239 242 244 246 248 250 252 254 255 255 255 255 255 256 256 256 257 257 257 257 256 256 254 249 245 243 241 241 243 244
335 337 342 346 347 347 348 350 349 349 352 355 353 349 350 352 350 348 348 343 329 318 314 319 331 195 203 211 218 223 226 228 230 234 238 243 245 248 250 252 253 253 254 255 256 257 257 257 256 257 258 258 258 257 257 257 253 248 244 243 243 244 244
326 328 334 338 339 339 340 342 344 346 348 351 350 345 343 346 350 350 346 342 343 336 318 313 324 132 184 204 213 219 223 227 230 232 235 239 241 242 243 245 246 248 251 253 255 257 257 257 257 257 258 258 258 258 258 258 258 255 251 248 247 247 247
320 320 325 330 331 332 334 334 337 342 345 346 346 344 342 341 344 346 345 343 345 344 327 321 329 327 228 216 212 212 213 217 222 226 230 233 236 237 239 240 242 245 248 251 253 255 257 257 257 258 259 259 259 259 258 258 259 259 259 256 252 250 250
311 311 315 321 324 325 326 328 331 335 340 344 343 341 341 340 337 340 345 345 345 344 334 326 327 324 304 253 222 215 214 214 215 219 224 229 233 237 239 241 241 242 244 247 250 253 254 255 255 256 258 260 260 259 259 259 258 259 260 260 257 254 251
300 301 304 310 314 316 318 320 324 328 332 337 338 337 337 336 334 337 342 344 342 337 331 329 329 328 327 315 259 231 224 222 222 222 225 228 233 238 241 242 241 240 240 242 246 249 251 252 252 252 254 258 261 261 260 259 259 258 258 259 259 257 254
294 293 296 300 303 307 311 314 317 321 325 327 329 330 332 331 330 333 337 340 337 329 325 328 332 328 327 334 334 302 250 233 230 229 228 228 232 237 241 244 243 239 237 238 241 245 248 250 250 250 251 254 259 262 262 261 260 259 259 258 258 257 256
291 287 288 291 294 299 304 308 311 315 318 320 321 322 323 324 326 329 330 332 329 322 320 325 329 327 325 322 328 334 312 261 240 236 234 230 229 232 236 240 243 243 241 239 239 241 244 246 248 250 250 252 255 258 261 262 262 261 259 259 258 257 257
289 284 281 283 286 291 296 301 305 309 312 315 316 317 315 315 318 321 321 321 319 315 316 321 328 335 334 322 311 323 325 305 261 243 239 234 231 230 231 234 237 240 242 242 241 241 242 244 246 248 249 251 254 256 258 260 261 261 260 258 258 258 258
288 282 278 275 276 280 285 292 298 303 306 309 311 312 311 310 310 309 307 309 310 312 316 321 327 339 343 332 310 298 308 312 291 252 241 237 233 231 230 231 233 235 238 240 243 244 245 245 246 247 249 252 255 257 257 257 257 258 259 260 261 261 260
287 278 273 268 267 272 278 283 289 296 300 304 307 307 305 304 304 302 299 300 305 313 320 324 327 334 340 339 327 302 301 310 306 274 250 241 235 233 231 230 231 233 236 240 243 246 249 250 251 253 255 257 259 260 259 259 258 258 262 264 265 266 266
287 272 266 265 264 265 270 276 283 289 294 299 303 304 303 301 298 296 296 298 302 310 320 327 330 333 333 334 335 324 310 309 310 299 272 249 240 238 236 232 231 232 235 239 242 246 250 253 255 259 262 262 263 263 263 265 267 268 269 269 269 269 271
289 269 259 260 262 261 264 271 277 283 289 294 299 301 300 299 296 293 293 298 301 305 314 324 331 333 329 325 325 321 309 303 304 303 290 266 249 243 241 238 235 233 234 237 240 243 247 252 255 259 261 262 263 265 266 268 271 270 270 271 270 269 270
290 271 257 255 258 257 260 267 274 279 285 289 294 298 298 297 297 294 291 296 301 302 306 316 327 332 328 320 314 310 302 296 293 290 286 280 265 250 245 245 243 239 235 237 240 242 245 248 252 255 256 257 260 262 263 265 267 268 269 270 271 270 269